Stations météo

réclame
Mon MeteoGroup
Wick Airport (AWS), Grande-Bretagne (3075): Température de l'air & dewpoint: 23.03.2020 22:00:00 - 29.03.2020 22:00:00 (BST)Wick Airport (AWS), Grande-Bretagne (3075): Température de l'air -20cm: 23.03.2020 22:00:00 - 29.03.2020 22:00:00 (BST)Wick Airport (AWS), Grande-Bretagne (3075): Vitesse du vent & gusts: 23.03.2020 22:00:00 - 29.03.2020 22:00:00 (BST)Wick Airport (AWS), Grande-Bretagne (3075): Direction du vent: 23.03.2020 22:00:00 - 29.03.2020 22:00:00 (BST)Wick Airport (AWS), Grande-Bretagne (3075): reduced air pressure: 23.03.2020 22:00:00 - 29.03.2020 22:00:00 (BST)Wick Airport (AWS), Grande-Bretagne (3075): visibility: 23.03.2020 22:00:00 - 29.03.2020 22:00:00 (BST)Wick Airport (AWS), Grande-Bretagne (3075): Quantités de précipitations: 23.03.2020 22:00:00 - 29.03.2020 22:00:00 (BST)
Date & Time tt [°C] td [°C] tt -20cm [°C] ff [km/h] ff [knt] fx [km/h] fx [knt] dd ppp [hPa] vv [km] rr [mm]
29.03.2020 22:00:00 - - - - - - - - - - -
29.03.2020 21:00:00 6,1 4,4 - 26 14 - - WNW 1041,7 14 0,0
29.03.2020 20:00:00 6,0 4,7 - 22 12 - - NW 1042,1 13 0,0
29.03.2020 19:00:00 6,3 4,8 - 28 15 48 26 WNW 1042,3 14 0,2
29.03.2020 18:00:00 6,8 4,3 - 35 19 57 31 WNW 1042,5 22 0,0
29.03.2020 17:00:00 6,6 4,2 - 37 20 54 29 WNW 1043,0 21 0,0
29.03.2020 16:00:00 6,9 3,0 - 42 23 55 30 WNW 1043,5 12 0,0
29.03.2020 15:00:00 6,5 2,7 - 42 23 61 33 WNW 1044,2 9 0,0
29.03.2020 14:00:00 7,3 2,3 - 41 22 54 29 WNW 1044,7 23 0,0
29.03.2020 13:00:00 6,7 2,2 - 35 19 52 28 W 1045,2 35 0,0
29.03.2020 12:00:00 5,7 -0,4 - 26 14 - - W 1045,9 30 0,0
29.03.2020 11:00:00 5,3 -1,2 - 24 13 - - W 1046,5 30 0,0
29.03.2020 10:00:00 3,8 -1,3 5,2 16 9 - - WSW 1047,3 35 0,0
29.03.2020 09:00:00 2,2 -2,2 - 8 4 - - SW 1047,7 45 0,0
29.03.2020 08:00:00 0,4 -4,1 - 5 3 - - WSW 1047,7 45 0,0
29.03.2020 07:00:00 -0,1 -4,8 - 11 6 - - WSW 1047,5 45 0,0
29.03.2020 06:00:00 2,4 -4,8 - 15 8 - - NNW 1047,7 40 0,0
29.03.2020 05:00:00 2,6 -6,5 - 24 13 - - NNW 1048,2 50 0,0
29.03.2020 04:00:00 2,4 -5,1 - 22 12 - - NNW 1048,3 40 0,0
29.03.2020 03:00:00 2,4 -5,6 - 24 13 - - NNW 1048,5 50 0,0
29.03.2020 02:00:00 2,3 -5,5 - 29 16 48 26 N 1048,6 50 0,0
29.03.2020 01:00:00 2,6 -5,4 - 21 11 - - NW 1048,0 50 0,0
29.03.2020 00:00:00 2,7 -4,2 - 28 15 - - NNW 1047,9 45 0,0
28.03.2020 23:00:00 2,8 -5,7 - 29 16 - - N 1047,5 50 0,0
28.03.2020 22:00:00 2,4 -7,7 - 35 19 52 28 N 1047,3 45 0,0
28.03.2020 21:00:00 2,9 -5,8 - 34 18 - - N 1046,9 50 0,0
28.03.2020 20:00:00 2,8 -4,9 - 28 15 46 25 NNW 1046,2 45 0,0
28.03.2020 19:00:00 3,3 -3,7 - 34 18 50 27 N 1045,5 35 0,0
28.03.2020 18:00:00 4,4 -2,9 - 35 19 48 26 N 1044,7 35 0,0
28.03.2020 17:00:00 4,8 -3,1 - 37 20 50 27 N 1044,5 19 0,0
28.03.2020 16:00:00 4,6 -3,1 - 39 21 52 28 N 1044,1 23 0,0
28.03.2020 15:00:00 4,5 0,2 - 31 17 54 29 N 1043,8 17 0,0
28.03.2020 14:00:00 5,2 1,0 - 41 22 55 30 N 1043,4 15 0,0
28.03.2020 13:00:00 5,9 -1,3 - 39 21 55 30 N 1042,7 26 0,0
28.03.2020 12:00:00 5,7 -2,2 - 37 20 50 27 N 1041,6 30 0,0
28.03.2020 11:00:00 5,2 -0,6 - 41 22 54 29 N 1040,9 29 0,0
28.03.2020 10:00:00 4,1 -1,8 5,7 39 21 52 28 N 1040,0 45 0,0
28.03.2020 09:00:00 3,0 0,7 - 37 20 50 27 NNW 1039,4 7 0,0
28.03.2020 08:00:00 3,9 2,1 - 24 13 48 26 NNW 1038,3 22 0,0
28.03.2020 07:00:00 3,1 1,1 - 21 11 52 28 NW 1037,6 21 0,4
28.03.2020 06:00:00 4,0 2,0 - 24 13 - - NW 1037,0 22 0,0
28.03.2020 05:00:00 4,4 2,2 - 18 10 - - NNW 1036,5 20 0,0
28.03.2020 04:00:00 4,6 2,5 - 21 11 - - NW 1036,6 19 0,0
28.03.2020 03:00:00 4,4 2,5 - 13 7 - - NW 1036,3 18 0,0
28.03.2020 02:00:00 5,2 3,6 - 21 11 - - NW 1035,9 15 0,0
28.03.2020 01:00:00 4,8 3,7 - 11 6 - - WNW 1035,5 23 0,2
28.03.2020 00:00:00 5,3 4,8 - 16 9 - - WNW 1035,1 6 0,2
27.03.2020 23:00:00 4,6 3,6 - 16 9 - - W 1034,7 23 0,0
27.03.2020 22:00:00 3,5 2,0 - 15 8 - - W 1034,5 27 0,0
27.03.2020 21:00:00 4,3 2,6 - 16 9 - - W 1034,1 29 0,0
27.03.2020 20:00:00 4,4 2,3 - 13 7 - - WNW 1033,7 30 0,0
27.03.2020 19:00:00 7,2 2,9 - 16 9 - - WNW 1033,2 30 0,0
27.03.2020 18:00:00 8,7 2,4 - 21 11 - - NW 1032,8 35 0,0
27.03.2020 17:00:00 8,2 2,8 - 21 11 - - WNW 1032,6 23 0,0
27.03.2020 16:00:00 8,8 3,9 - 22 12 - - NW 1032,7 50 0,0
27.03.2020 15:00:00 10,2 1,9 - 22 12 - - NW 1032,3 25 0,0
27.03.2020 14:00:00 9,5 2,1 - 18 10 - - NW 1032,3 35 0,0
27.03.2020 13:00:00 8,7 3,3 - 16 9 - - NW 1032,2 35 0,0
27.03.2020 12:00:00 9,7 3,5 - 16 9 - - NW 1031,9 20 0,0
27.03.2020 11:00:00 8,6 3,8 - 15 8 - - WNW 1031,4 30 0,0
27.03.2020 10:00:00 6,2 3,2 5,7 11 6 - - W 1031,3 30 0,0
27.03.2020 09:00:00 2,7 1,5 - 8 4 - - W 1030,9 25 0,0
27.03.2020 08:00:00 1,3 0,3 - 8 4 - - WSW 1030,2 45 0,0
27.03.2020 07:00:00 1,5 0,9 - 11 6 - - WSW 1029,8 40 0,0
27.03.2020 06:00:00 0,5 -0,3 - 5 3 - - WSW 1029,5 45 0,0
27.03.2020 05:00:00 2,1 1,4 - 5 3 - - WSW 1029,5 35 0,0
27.03.2020 04:00:00 1,5 0,6 - 8 4 - - W 1029,4 45 0,0
27.03.2020 03:00:00 1,4 0,7 - 9 5 - - W 1029,5 35 0,0
27.03.2020 02:00:00 1,8 1,0 - 8 4 - - W 1029,2 18 0,0
27.03.2020 01:00:00 4,3 3,1 - 5 3 - - SSW 1028,9 45 0,0
27.03.2020 00:00:00 4,3 3,1 - 8 4 - - S 1029,0 45 0,0
26.03.2020 23:00:00 4,1 3,0 - 5 3 - - SSW 1029,1 45 0,0
26.03.2020 22:00:00 4,1 2,1 - 5 3 - - SSW 1029,1 45 0,0
26.03.2020 21:00:00 6,1 3,3 - 4 2 - - S 1029,2 45 0,0
26.03.2020 20:00:00 6,7 3,1 - 8 4 - - SE 1028,8 45 0,0
26.03.2020 19:00:00 6,9 2,4 - 8 4 - - SE 1028,4 45 0,0
26.03.2020 18:00:00 7,2 2,9 - 11 6 - - ESE 1028,3 40 0,0
26.03.2020 17:00:00 7,8 3,8 - 18 10 - - E 1028,2 30 0,0
26.03.2020 16:00:00 8,1 3,1 - 13 7 - - SE 1028,1 40 0,0
26.03.2020 15:00:00 7,9 0,4 - 15 8 - - SSE 1028,2 35 0,0
26.03.2020 14:00:00 8,5 0,8 - 16 9 - - SSE 1028,3 40 0,0
26.03.2020 13:00:00 8,8 2,8 - 9 5 - - S 1028,4 35 0,0
26.03.2020 12:00:00 9,2 2,2 - 8 4 - - W 1028,1 30 0,0
26.03.2020 11:00:00 8,1 3,5 - 11 6 - - WSW 1028,2 30 0,0
26.03.2020 10:00:00 5,9 3,3 5,7 8 4 - - WSW 1028,1 19 0,0
26.03.2020 09:00:00 3,1 1,2 - 5 3 - - WSW 1027,8 26 0,0
26.03.2020 08:00:00 1,2 0,0 - 9 5 - - W 1027,2 35 0,0
26.03.2020 07:00:00 0,2 -0,7 - 11 6 - - W 1026,8 40 0,0
26.03.2020 06:00:00 0,2 -0,6 - 13 7 - - W 1026,3 45 0,0
26.03.2020 05:00:00 1,4 0,7 - 11 6 - - WSW 1025,9 50 0,0
26.03.2020 04:00:00 0,9 0,0 - 11 6 - - W 1025,8 50 0,0
26.03.2020 03:00:00 3,2 2,4 - 5 3 - - SW 1025,5 50 0,0
26.03.2020 02:00:00 4,1 3,0 - 5 3 - - WSW 1025,2 45 0,0
26.03.2020 01:00:00 4,3 3,1 - 5 3 - - SSW 1028,9 45 0,0
26.03.2020 00:00:00 4,9 3,5 - 8 4 - - SW 1024,9 40 0,0
25.03.2020 23:00:00 4,8 4,1 - 4 2 - - WSW 1024,6 45 0,0
25.03.2020 22:00:00 5,0 4,3 - 4 2 - - W 1023,9 40 0,0
25.03.2020 21:00:00 5,9 5,2 - 9 5 - - WNW 1023,7 29 0,0
25.03.2020 20:00:00 6,4 5,4 - 16 9 - - WNW 1022,8 21 0,2
25.03.2020 19:00:00 7,0 5,9 - 11 6 - - S 1022,1 13 0,2
25.03.2020 18:00:00 6,9 5,4 - 11 6 - - SSE 1021,7 9 0,2
25.03.2020 17:00:00 7,1 5,7 - 9 5 - - SSE 1021,4 10 0,4
25.03.2020 16:00:00 6,9 5,6 - 9 5 - - SSE 1021,4 6 0,0
25.03.2020 15:00:00 7,3 4,9 - 9 5 - - SE 1020,9 35 0,0
25.03.2020 14:00:00 7,3 5,5 - 9 5 - - ESE 1020,5 16 0,0
25.03.2020 13:00:00 7,9 4,6 - 2 1 - - W 1020,1 50 0,0
25.03.2020 12:00:00 7,4 5,2 - 4 2 - - SW 1019,6 45 0,0
25.03.2020 11:00:00 6,9 5,6 - 5 3 - - NNW 1019,1 19 0,0
25.03.2020 10:00:00 6,7 6,2 5,5 8 4 - - WNW 1018,0 26 0,2
25.03.2020 09:00:00 6,1 5,7 - 11 6 - - WNW 1017,1 23 0,0
25.03.2020 08:00:00 5,9 5,5 - 13 7 - - NW 1015,9 11 0,0
25.03.2020 07:00:00 6,1 5,6 - 22 12 - - NW 1014,4 4,5 0,2
25.03.2020 06:00:00 7,3 6,5 - 18 10 - - WNW 1012,9 3,3 0,4
25.03.2020 05:00:00 9,7 7,0 - 28 15 - - SSW 1011,3 45 0,0
25.03.2020 04:00:00 8,8 6,5 - 22 12 - - S 1010,9 21 0,0
25.03.2020 03:00:00 8,8 6,6 - 21 11 - - S 1010,6 14 0,0
25.03.2020 02:00:00 9,1 6,5 - 29 16 - - S 1010,1 19 0,0
25.03.2020 01:00:00 9,1 6,2 - 29 16 - - S 1009,7 19 0,0
25.03.2020 00:00:00 9,0 5,9 - 22 12 - - S 1009,6 15 0,0
24.03.2020 23:00:00 9,2 6,0 - 0 0 - - N 1009,4 18 0,0
24.03.2020 22:00:00 9,3 6,1 - 0 0 - - N 1009,1 18 0,0
24.03.2020 21:00:00 9,2 6,1 - 0 0 - - N 1009,0 14 0,0
24.03.2020 20:00:00 9,6 6,0 - 0 0 - - N 1008,8 19 0,0
24.03.2020 19:00:00 10,0 6,0 - 0 0 - - N 1007,8 29 0,0
24.03.2020 18:00:00 10,6 6,0 - 0 0 59 32 N 1007,6 21 0,0
24.03.2020 17:00:00 11,2 5,8 - 44 24 78 42 S 1007,8 24 0,0
24.03.2020 16:00:00 12,7 6,0 - 41 22 57 31 S 1008,0 20 0,0
24.03.2020 15:00:00 13,1 5,5 - 28 15 46 25 S 1008,0 18 0,0
24.03.2020 14:00:00 10,7 5,3 - 26 14 48 26 SSE 1008,3 15 0,0
24.03.2020 13:00:00 9,7 4,0 - 35 19 57 31 S 1008,2 25 0,0
24.03.2020 12:00:00 9,3 4,1 - 34 18 52 28 S 1008,4 17 0,0
24.03.2020 11:00:00 9,0 4,4 - 31 17 46 25 S 1008,6 18 0,0
24.03.2020 10:00:00 8,3 4,8 4,7 26 14 - - S 1009,1 20 0,0
24.03.2020 09:00:00 7,8 4,9 - 18 10 - - S 1009,8 14 0,0
24.03.2020 08:00:00 7,8 4,7 - 22 12 - - S 1010,2 15 0,0
24.03.2020 07:00:00 7,4 4,7 - 22 12 - - S 1010,7 15 0,0
24.03.2020 06:00:00 7,5 5,0 - 24 13 - - S 1011,1 23 0,0
24.03.2020 05:00:00 7,4 5,7 - 26 14 - - S 1011,7 50 0,4
24.03.2020 04:00:00 7,6 5,3 - 26 14 - - S 1012,5 18 0,0
24.03.2020 03:00:00 7,8 5,1 - 29 16 - - SSW 1012,8 35 0,0
24.03.2020 02:00:00 7,7 4,7 - 35 19 50 27 S 1013,1 21 0,0
24.03.2020 01:00:00 7,8 4,6 - 37 20 55 30 SSW 1013,2 28 0,0
24.03.2020 00:00:00 8,3 4,2 - 39 21 57 31 SSW 1013,5 30 0,0
23.03.2020 23:00:00 8,6 3,9 - 42 23 61 33 S 1013,5 21 0,0
23.03.2020 22:00:00 - - - - - - - - - - -

tt = Température de l'air
td = dewpoint
tt -20cm = Température de l'air -20cm
ff = Vitesse du vent
fx = gusts
dd = Direction du vent
ppp = reduced air pressure
vv = visibility
rr = Quantités de précipitations

stations d'obs. à proximité